Find Starlink 33814

NORAD ID: 63582 Int'l Des: 2025-076 Owner: SPXS Country: US Constellation: starlink operational
LEOCIRCULAR

現在のビュー

3D地球を読み込み中...

About Starlink 33814

Starlink 33814 (NORAD 63582) is a starlink constellation satellite (v2 mini) launched Apr 14, 2025 by SPXS of US. It operates in LEO, CIRCULAR orbit with a mass of 575.00 kg.

Starlink 33814について

説明を読み込み中...

次回通過

Passes for default location (London). Set your location on the main map for personalized predictions.

高度履歴

Loading altitude history...

軌道要素

1 63582U 25076P 26171.15182594 .00013651 00000-0 50456-3 0 9995
2 63582 43.0011 102.7827 0001299 277.1837 82.8867 15.27587216 67509
Epoch: Jun 20, 2026 • Age: 24 hours

現在のステータス

高度 486.9 km
速度 7.63 km/s
衛星直下点 43.00°N, 141.5°W
打ち上げ日 Apr 14, 2025
運用期間 1.1 years
タイプ internet

技術仕様

分類 Payload
質量 575.00 kg
乾燥質量 530.00 kg
総質量 575.00 kg
長さ 0.30 m
直径 4.10 m
スパン 29.00 m
形状 Box + pan
製造者 SPXS
バスタイプ Starlink V2MO
フェーズステータス In Orbit
所有者/国 SPXS/US

Most Searched